Location: Maccacari
(45.1333°N, 11.1333°E)
Time: 18:55:40
(UTC+00:00)

USA 234 - Pass Details

Date: 17 January 2021
Orbit: 1100 x 1107 km, 123.0° (Epoch: 01 March)

Event Time Altitude Azimuth Distance (km) Brightness Sun altitude
Exits shadow 20:53:45 16° 292° (WNW) 2,531 5.5 -50.3°
Drops below altitude 10° 20:55:03 10° 298° (WNW) 2,964 6.0 -50.5°
Sets 20:57:44 0° 306° (NW) 3,926 6.8 -50.9°
